Lid_Strength_Index
7 4 2 2 1 1 1 1 1 1 1 1 2 2 2 2 2 2 1 1 1 2 2 3 4 5 7 7 7 8 7 7 7 8 6 4 5 5 5 4 4 3 3
8 7 4 2 1 2 2 1 1 1 1 1 2 2 2 2 2 2 2 2 2 2 3 4 6 7 8 7 6 8 7 7 7 8 6 6 6 6 6 5 5 4 3
6 6 5 2 2 2 2 1 1 1 1 1 1 1 2 2 2 2 2 3 2 2 3 5 6 6 7 7 8 8 7 8 7 8 7 7 7 7 6 5 5 5 4
8 6 6 6 6 2 2 1 1 1 1 1 1 1 1 1 1 1 2 3 4 4 4 4 5 5 6 7 7 8 8 7 8 7 7 7 7 7 7 6 6 6 6
8 8 7 5 4 3 2 2 2 2 1 1 1 1 1 1 1 2 3 4 4 4 3 5 5 5 6 6 7 8 8 8 7 8 8 8 8 8 7 7 7 6 6
9 8 6 5 4 2 2 2 2 2 2 2 2 2 2 2 10 8 6 5 5 5 5 5 6 6 7 8 7 8 7 8 8 7 8 8 8 8 8 7 7 7 7
9 8 7 5 3 3 2 2 3 3 3 2 2 2 2 3 9 9 7 3 3 2 3 5 6 6 7 8 9 9 9 9 7 6 7 8 8 8 7 8 8 7 7
8 7 7 6 4 2 2 2 3 3 3 3 2 2 2 2 9 9 8 3 2 3 4 5 5 6 8 9 9 9 9 7 7 7 6 7 7 7 7 6 6 7 7
8 7 6 5 4 3 3 3 3 3 3 4 2 2 2 3 10 12 7 4 4 5 5 6 7 8 11 11 9 10 10 8 8 9 9 10 10 10 8 6 7 7 8
7 6 5 4 3 3 2 3 2 3 3 3 3 2 4 4 12 12 7 7 8 8 8 9 9 9 12 12 10 10 10 9 8 8 8 9 8 9 9 7 7 8 8
5 5 4 3 3 2 2 2 2 2 3 3 3 3 3 5 9 12 11 8 8 8 9 9 10 12 12 12 10 8 8 8 8 8 8 8 8 7 7 8 7 7 8
4 4 3 2 2 2 2 2 2 3 3 3 5 7 7 6 10 12 11 10 10 9 10 10 11 13 13 13 11 12 11 9 7 7 7 8 8 9 9 9 8 7 6
4 3 3 2 3 3 3 3 3 3 3 4 5 6 8 8 9 11 12 12 11 10 10 11 13 13 13 12 12 12 10 8 8 7 9 10 10 10 10 9 8 7 6
6 6 5 5 7 6 6 5 3 3 4 5 6 8 9 10 10 11 11 11 12 11 11 11 11 11 11 11 11 9 8 9 8 9 10 11 11 11 11 10 9 8 9
7 7 8 9 8 11 13 13 8 8 6 5 7 8 10 11 11 12 11 10 10 11 12 11 11 10 11 11 10 10 11 10 10 11 11 11 11 11 11 10 10 10 10
9 8 8 8 8 9 9 11 13 13 13 12 11 9 9 10 13 13 13 13 14 13 11 11 12 11 11 11 11 12 11 10 11 11 11 11 12 11 11 11 10 10 10
10 10 9 8 8 9 9 10 11 12 13 13 13 13 13 13 14 14 15 14 14 12 12 12 12 12 12 11 11 11 11 11 11 11 11 11 12 12 11 11 11 11 11
10 11 11 11 10 8 9 8 9 11 13 14 14 14 15 15 15 14 14 13 12 13 13 13 13 12 12 11 11 11 12 11 11 11 11 11 12 12 12 12 12 12 11
11 11 11 11 11 11 11 10 10 12 13 14 14 14 14 15 15 14 13 12 13 13 13 13 13 12 12 11 12 11 11 11 11 11 12 12 12 12 13 12 12 15 13
11 12 12 12 12 12 12 12 13 13 13 13 14 14 13 13 13 13 12 12 13 13 13 13 12 12 12 12 12 12 12 12 12 12 12 12 12 12 13 13 12 12 12
10 11 14 12 12 12 13 13 13 13 14 14 14 15 16 12 13 13 13 13 12 13 13 13 13 12 12 12 12 12 12 13 12 12 12 13 13 13 13 12 12 12 11
10 11 11 12 12 12 13 13 13 13 13 14 14 14 16 14 14 14 14 14 13 13 13 13 13 12 12 12 12 13 13 13 13 13 13 13 13 13 13 13 13 12 12
10 10 11 11 11 12 13 12 13 13 13 13 13 13 14 14 14 14 14 14 14 14 13 13 13 13 13 13 12 13 13 13 13 12 13 13 13 13 13 13 12 12 11
10 11 11 11 11 12 12 12 13 13 13 13 13 13 13 14 14 13 13 14 14 15 14 14 14 14 14 14 14 13 13 13 13 12 12 13 13 13 13 12 11 11 11
10 11 11 11 12 11 11 12 12 12 12 13 13 13 13 14 14 14 15 15 15 16 16 15 15 15 15 14 14 15 16 16 14 15 13 13 13 12 12 11 11 11 11
10 11 12 11 11 11 12 12 11 12 12 13 13 13 14 14 15 15 15 16 16 16 16 15 15 15 15 15 15 16 17 16 15 15 13 12 12 12 11 11 11 11 11